Location: *
(58.7167°N, 26.1833°E)
Time: 01:45:36
(UTC+00:00)

Cosmos 1470 - Pass Details

Date: 25 August 2019
Orbit: 522 x 542 km, 82.5° (Epoch: 17 October)

Event Time Altitude Azimuth Distance (km) Brightness Sun altitude
Exits shadow 23:35:07 38° 251° (WSW) 814 3.3 -18.9°
Maximum altitude 23:36:00 46° 290° (WNW) 720 3.3 -18.9°
Drops below altitude 10° 23:39:47 10° 5° (N) 1,786 6.5 -18.7°
Sets 23:42:01 0° 11° (NNE) 2,683 7.9 -18.6°
